Find Gals 2

NORAD ID: 23717 Int'l Des: 1995-063 Owner: INFK/LAND Country: RU operational
HEOCIRCULAR

Live-Position

3D-Globus wird geladen...

Über Gals 2

Beschreibung wird geladen...

Nächste Überflüge

Passes for default location (London). Set your location on the main map for personalized predictions.

Höhenverlauf

Loading altitude history...

Zweizeiliger Elementsatz

1 23717U 95063A 26118.71890708 -.00000028 00000-0 00000+0 0 9991
2 23717 14.4685 2.9727 0009250 336.0805 210.2322 0.99875709111131
Epoch: 28. Apr. 2026 • Age: 51 hours

Aktueller Status

Höhe 35909.7 km
Geschwindigkeit 3.07 km/s
Subsatellitenpunkt -11.31°S, 69.76°E
Startdatum 17. Nov. 1995
Alter 30.4 years
Typ other

Technische Details

Klassifizierung Payload
Masse 2600.00 kg
Trockenmasse 2400.00 kg
Gesamtmasse 2600.00 kg
Länge 6.60 m
Durchmesser 4.10 m
Spannweite 10.00 m
Form Cyl + 2 Pan
Hersteller NPOPMR
Bus-Typ Gals
Phasenstatus Unknown Active Status
Besitzer/Staat INFK/LAND/RU

Most Searched